Location: Newark
(45.2705°N, 0.1715°E)
Time: 07:40:54
(UTC+00:00)

Envisat - Visible Passes

Search period start: 29 January 2020 00:00
Search period end: 08 February 2020 00:00
Orbit: 764 x 766 km, 98.1° (Epoch: 28 January)

Date Brightness Start Highest point End Pass type
(mag) Time Alt. Az. Time Alt. Az. Time Alt. Az.
29 Jan 6.1 05:26:50 10° NE 05:29:57 16° E 05:33:01 10° SE visible
29 Jan 4.4 18:21:17 10° SSW 18:26:04 42° W 18:30:55 10° NNW visible
30 Jan 3.8 06:27:39 10° NNE 06:32:40 57° E 06:37:39 10° S visible
30 Jan 3.0 17:44:08 10° SSE 17:49:13 89° W 17:54:20 10° NNW visible
30 Jan 6.3 19:27:18 10° WSW 19:28:57 11° W 19:30:37 10° WNW visible
31 Jan 5.3 05:51:23 10° NE 05:55:42 27° E 05:59:58 10° SSE visible
31 Jan 5.4 18:47:36 10° SSW 18:51:44 25° W 18:55:55 10° NW visible
01 Feb 6.3 05:16:19 10° ENE 05:18:30 13° E 05:20:40 10° ESE visible
01 Feb 3.9 18:09:47 10° S 18:14:45 53° W 18:19:43 10° NNW visible
02 Feb 4.3 06:16:26 10° NNE 06:21:20 46° E 06:26:12 10° S visible
02 Feb 3.0 17:32:53 10° SSE 17:37:56 74° ENE 17:43:01 10° N visible
02 Feb 6.1 19:14:43 10° WSW 19:17:31 15° W 19:20:20 10° NW visible
03 Feb 5.7 05:40:23 10° NE 05:44:18 22° E 05:48:11 10° SE visible
03 Feb 5.0 18:35:53 10° SSW 18:40:21 31° W 18:44:52 10° NNW visible
04 Feb 3.2 06:41:46 10° NNE 06:46:53 78° ESE 06:51:58 10° S visible
04 Feb 3.5 17:58:22 10° S 18:03:25 66° WSW 18:08:30 10° NNW visible
05 Feb 4.7 06:05:17 10° NNE 06:09:59 36° E 06:14:39 10° SSE visible
05 Feb 5.9 19:02:36 10° SW 19:06:05 18° W 19:09:35 10° NW visible
06 Feb 6.0 05:29:31 10° NE 05:32:53 18° E 05:36:14 10° SE visible
06 Feb 4.6 18:24:16 10° SSW 18:28:59 39° W 18:33:45 10° NNW visible
07 Feb 3.6 06:30:31 10° NNE 06:35:34 63° E 06:40:36 10° S visible
07 Feb 3.2 17:47:01 10° SSE 17:52:06 83° WSW 17:57:13 10° NNW visible
07 Feb 6.5 19:31:07 10° W 19:31:54 10° W 19:32:43 10° WNW visible
